RNA217 VNKT-VIDP

Flight info

Callsign RNA217
Flight time 1h 18m
Altitude 40000
Route DARKE1F NARAN L626 HW W37 PUMOT PUMOT7L
Aircraft A332/H-SDE3GHIJ2J3J5M1RVWXY/LB2D1

Departure

Time 2026-04-28 09:02
Airport Tribhuvan International Airport (VNKT)

Arrival

Time 2026-04-28 10:20
Airport Indira Gandhi International Airport (VIDP)
Time Latitude Longitude Altitude Speed Heading
2026-04-28 08:50 27.69815 85.35764 4429 ft 0 kts 291°
2026-04-28 08:51 27.69815 85.35765 4429 ft 1 kts 291°
2026-04-28 08:51 27.69809 85.35780 4401 ft 3 kts 288°
2026-04-28 08:52 27.69804 85.35802 4401 ft 3 kts 281°
2026-04-28 08:52 27.69801 85.35825 4401 ft 3 kts 270°
2026-04-28 08:52 27.69802 85.35847 4401 ft 3 kts 249°
2026-04-28 08:52 27.69811 85.35863 4401 ft 2 kts 209°
2026-04-28 08:53 27.69814 85.35865 4401 ft 1 kts 202°
2026-04-28 08:54 27.69809 85.35863 4401 ft 2 kts 202°
2026-04-28 08:55 27.69792 85.35855 4401 ft 4 kts 202°
2026-04-28 08:55 27.69763 85.35842 4401 ft 5 kts 202°
2026-04-28 08:55 27.69726 85.35825 4401 ft 6 kts 202°
2026-04-28 08:55 27.69681 85.35804 4402 ft 8 kts 202°
2026-04-28 08:56 27.69629 85.35780 4402 ft 9 kts 202°
2026-04-28 08:56 27.69568 85.35753 4402 ft 10 kts 201°
2026-04-28 08:56 27.69495 85.35721 4400 ft 13 kts 202°
2026-04-28 08:56 27.69460 85.35705 4399 ft 0 kts 202°
2026-04-28 08:57 27.69452 85.35701 4399 ft 3 kts 202°
2026-04-28 08:57 27.69422 85.35687 4398 ft 6 kts 202°
2026-04-28 08:57 27.69372 85.35665 4398 ft 9 kts 202°
2026-04-28 08:57 27.69309 85.35636 4397 ft 11 kts 202°
2026-04-28 08:58 27.69231 85.35600 4395 ft 14 kts 202°
2026-04-28 08:58 27.69130 85.35559 4392 ft 16 kts 188°
2026-04-28 08:58 27.69045 85.35611 4394 ft 13 kts 162°
2026-04-28 08:58 27.68959 85.35595 4395 ft 12 kts 204°
2026-04-28 08:59 27.68879 85.35558 4395 ft 13 kts 201°
2026-04-28 08:59 27.68780 85.35514 4391 ft 19 kts 201°
2026-04-28 08:59 27.68643 85.35451 4396 ft 23 kts 202°
2026-04-28 08:59 27.68485 85.35379 4400 ft 26 kts 202°
2026-04-28 09:00 27.68319 85.35286 4404 ft 26 kts 226°
2026-04-28 09:00 27.68187 85.35187 4403 ft 17 kts 169°
2026-04-28 09:00 27.68166 85.35225 4404 ft 5 kts 81°
2026-04-28 09:00 27.68220 85.35259 4405 ft 14 kts 21°
2026-04-28 09:01 27.68353 85.35320 4403 ft 29 kts 22°
2026-04-28 09:01 27.68720 85.35485 4393 ft 89 kts 21°
2026-04-28 09:01 27.69490 85.35836 4400 ft 148 kts 23°
2026-04-28 09:01 27.70592 85.36321 4640 ft 183 kts 18°
2026-04-28 09:02 27.71844 85.36861 5295 ft 202 kts 19°
2026-04-28 09:02 27.73177 85.37481 6184 ft 209 kts 28°
2026-04-28 09:02 27.74240 85.38555 7129 ft 208 kts 56°
2026-04-28 09:02 27.74695 85.40111 7974 ft 218 kts 88°
2026-04-28 09:03 27.74561 85.41919 8473 ft 247 kts 99°
2026-04-28 09:03 27.74201 85.43937 8869 ft 276 kts 106°
2026-04-28 09:03 27.73448 85.45978 9548 ft 289 kts 124°
2026-04-28 09:03 27.71989 85.47556 10286 ft 298 kts 151°
2026-04-28 09:04 27.69985 85.48184 11008 ft 307 kts 181°
2026-04-28 09:04 27.67918 85.47553 11705 ft 315 kts 210°
2026-04-28 09:04 27.66184 85.45991 12311 ft 327 kts 231°
2026-04-28 09:04 27.64912 85.43800 12740 ft 344 kts 243°
2026-04-28 09:05 27.63842 85.41284 12970 ft 367 kts 248°
2026-04-28 09:05 27.63089 85.38476 13309 ft 382 kts 263°
2026-04-28 09:05 27.63185 85.35464 13783 ft 391 kts 283°
2026-04-28 09:05 27.64211 85.32619 14316 ft 395 kts 298°
2026-04-28 09:06 27.65425 85.29878 15323 ft 385 kts 295°
2026-04-28 09:06 27.66560 85.27196 16488 ft 373 kts 296°
2026-04-28 09:06 27.67705 85.24616 17679 ft 363 kts 296°
2026-04-28 09:06 27.68865 85.22107 18551 ft 361 kts 297°
2026-04-28 09:07 27.70060 85.19589 19111 ft 368 kts 297°
2026-04-28 09:07 27.71297 85.17024 19618 ft 375 kts 297°
2026-04-28 09:07 27.72558 85.14436 20285 ft 377 kts 297°
2026-04-28 09:07 27.73822 85.11845 20959 ft 378 kts 297°
2026-04-28 09:08 27.74896 85.09138 21658 ft 379 kts 288°
2026-04-28 09:08 27.75554 85.06251 22316 ft 381 kts 279°
2026-04-28 09:08 27.75787 85.03268 22981 ft 383 kts 270°
2026-04-28 09:08 27.75611 85.00261 23597 ft 386 kts 263°
2026-04-28 09:09 27.75244 84.97289 24066 ft 389 kts 262°
2026-04-28 09:09 27.74832 84.94250 24504 ft 394 kts 262°
2026-04-28 09:09 27.74415 84.91177 24967 ft 398 kts 262°
2026-04-28 09:09 27.73998 84.88082 25451 ft 401 kts 262°
2026-04-28 09:10 27.73580 84.84955 25872 ft 405 kts 262°
2026-04-28 09:10 27.73159 84.81804 26301 ft 408 kts 262°
2026-04-28 09:10 27.72735 84.78621 26755 ft 412 kts 262°
2026-04-28 09:10 27.72307 84.75413 27187 ft 415 kts 262°
2026-04-28 09:11 27.71877 84.72186 27592 ft 418 kts 262°
2026-04-28 09:11 27.71442 84.68928 28028 ft 421 kts 262°
2026-04-28 09:11 27.71003 84.65647 28460 ft 425 kts 262°
2026-04-28 09:11 27.70560 84.62350 28926 ft 427 kts 262°
2026-04-28 09:12 27.70113 84.59024 29356 ft 430 kts 262°
2026-04-28 09:12 27.69662 84.55676 29776 ft 434 kts 262°
2026-04-28 09:12 27.69206 84.52293 30140 ft 437 kts 262°
2026-04-28 09:12 27.68748 84.48898 30507 ft 439 kts 262°
2026-04-28 09:13 27.68437 84.45472 30903 ft 440 kts 269°
2026-04-28 09:13 27.68587 84.42026 31308 ft 441 kts 278°
2026-04-28 09:13 27.69260 84.38647 31715 ft 442 kts 286°
2026-04-28 09:13 27.70165 84.35346 32238 ft 440 kts 288°
2026-04-28 09:14 27.71147 84.32083 32815 ft 437 kts 289°
2026-04-28 09:14 27.72152 84.28867 33393 ft 435 kts 289°
2026-04-28 09:14 27.73161 84.25659 33939 ft 431 kts 289°
2026-04-28 09:14 27.74157 84.22472 34419 ft 429 kts 289°
2026-04-28 09:15 27.75139 84.19297 34771 ft 429 kts 289°
2026-04-28 09:15 27.76116 84.16106 35149 ft 429 kts 289°
2026-04-28 09:15 27.77081 84.12932 35501 ft 429 kts 288°
2026-04-28 09:15 27.78049 84.09731 35882 ft 429 kts 288°
2026-04-28 09:16 27.79009 84.06548 36262 ft 428 kts 288°
2026-04-28 09:16 27.79970 84.03359 36607 ft 428 kts 288°
2026-04-28 09:16 27.80927 84.00180 36940 ft 428 kts 288°
2026-04-28 09:16 27.81871 83.97043 37311 ft 427 kts 288°
2026-04-28 09:17 27.82826 83.93869 37691 ft 427 kts 288°
2026-04-28 09:17 27.83780 83.90696 38019 ft 426 kts 289°
2026-04-28 09:17 27.84729 83.87533 38406 ft 424 kts 289°
2026-04-28 09:17 27.85676 83.84378 38705 ft 423 kts 289°
2026-04-28 09:18 27.86618 83.81232 39001 ft 422 kts 289°
2026-04-28 09:18 27.87558 83.78095 39302 ft 421 kts 289°
2026-04-28 09:18 27.88494 83.74965 39579 ft 420 kts 289°
2026-04-28 09:18 27.89432 83.71830 39709 ft 423 kts 289°
2026-04-28 09:19 27.90379 83.68660 39727 ft 428 kts 289°
2026-04-28 09:19 27.92303 83.62214 39723 ft 434 kts 289°
2026-04-28 09:20 27.94228 83.55744 39744 ft 434 kts 288°
2026-04-28 09:20 27.96278 83.49332 39740 ft 433 kts 291°
2026-04-28 09:21 27.98483 83.42986 39731 ft 434 kts 291°
2026-04-28 09:21 28.00698 83.36647 39730 ft 433 kts 291°
2026-04-28 09:22 28.02892 83.30297 39727 ft 433 kts 291°
2026-04-28 09:22 28.04705 83.25013 39727 ft 433 kts 291°
2026-04-28 09:23 28.06878 83.18657 39728 ft 433 kts 291°
2026-04-28 09:23 28.09414 83.11226 39715 ft 433 kts 291°
2026-04-28 09:24 28.11217 83.05937 39714 ft 433 kts 291°
2026-04-28 09:24 28.13385 82.99567 39730 ft 434 kts 291°
2026-04-28 09:25 28.15551 82.93193 39728 ft 433 kts 291°
2026-04-28 09:25 28.17716 82.86809 39729 ft 434 kts 291°
2026-04-28 09:26 28.19873 82.80435 39716 ft 433 kts 291°
2026-04-28 09:26 28.22031 82.74052 39718 ft 434 kts 291°
2026-04-28 09:27 28.25268 82.64452 39732 ft 435 kts 291°
2026-04-28 09:27 28.27424 82.58043 39731 ft 435 kts 291°
2026-04-28 09:28 28.29575 82.51641 39709 ft 434 kts 290°
2026-04-28 09:28 28.31723 82.45231 39711 ft 435 kts 290°
2026-04-28 09:29 28.33869 82.38821 39703 ft 434 kts 290°
2026-04-28 09:29 28.36009 82.32414 39710 ft 435 kts 290°
2026-04-28 09:30 28.38151 82.25987 39708 ft 435 kts 290°
2026-04-28 09:30 28.40288 82.19566 39709 ft 435 kts 290°
2026-04-28 09:31 28.42421 82.13149 39708 ft 434 kts 290°
2026-04-28 09:31 28.44538 82.06766 39708 ft 434 kts 290°
2026-04-28 09:32 28.46664 82.00343 39707 ft 434 kts 290°
2026-04-28 09:32 28.48786 81.93920 39690 ft 434 kts 290°
2026-04-28 09:33 28.50904 81.87498 39689 ft 434 kts 290°
2026-04-28 09:33 28.53020 81.81073 39688 ft 434 kts 290°
2026-04-28 09:34 28.55134 81.74638 39700 ft 434 kts 290°
2026-04-28 09:34 28.57247 81.68196 39701 ft 435 kts 290°
2026-04-28 09:35 28.59295 81.61733 39676 ft 434 kts 288°
2026-04-28 09:35 28.61032 81.55169 39676 ft 433 kts 286°
2026-04-28 09:36 28.62676 81.48584 39656 ft 433 kts 286°
2026-04-28 09:36 28.64338 81.41994 39670 ft 433 kts 286°
2026-04-28 09:37 28.66020 81.35412 39653 ft 433 kts 286°
2026-04-28 09:37 28.67707 81.28832 39661 ft 433 kts 286°
2026-04-28 09:38 28.69392 81.22249 39653 ft 433 kts 286°
2026-04-28 09:38 28.71078 81.15646 39639 ft 435 kts 286°
2026-04-28 09:39 28.72762 81.09030 39656 ft 434 kts 286°
2026-04-28 09:39 28.74441 81.02419 39659 ft 434 kts 286°
2026-04-28 09:40 28.76116 80.95807 39656 ft 434 kts 286°
2026-04-28 09:40 28.77777 80.89239 39647 ft 434 kts 285°
2026-04-28 09:41 28.79445 80.82627 39652 ft 433 kts 285°
2026-04-28 09:41 28.81105 80.76034 39649 ft 433 kts 285°
2026-04-28 09:42 28.82761 80.69439 39673 ft 433 kts 285°
2026-04-28 09:42 28.84415 80.62838 39671 ft 433 kts 285°
2026-04-28 09:43 28.86066 80.56234 39663 ft 433 kts 285°
2026-04-28 09:43 28.87714 80.49631 39666 ft 433 kts 285°
2026-04-28 09:44 28.89356 80.43032 39649 ft 432 kts 285°
2026-04-28 09:44 28.90995 80.36433 39677 ft 432 kts 285°
2026-04-28 09:45 28.92628 80.29842 39653 ft 431 kts 285°
2026-04-28 09:45 28.94258 80.23246 39651 ft 431 kts 285°
2026-04-28 09:46 28.95870 80.16648 39650 ft 431 kts 283°
2026-04-28 09:46 28.96831 80.09900 39647 ft 431 kts 277°
2026-04-28 09:47 28.97552 80.03115 39646 ft 430 kts 277°
2026-04-28 09:47 28.98229 79.96322 39644 ft 430 kts 276°
2026-04-28 09:48 28.98907 79.89528 39667 ft 430 kts 277°
2026-04-28 09:48 28.99590 79.82734 39663 ft 430 kts 277°
2026-04-28 09:49 29.00272 79.75944 39665 ft 430 kts 276°
2026-04-28 09:49 29.00950 79.69173 39567 ft 425 kts 276°
2026-04-28 09:50 29.01603 79.62609 39349 ft 407 kts 276°
2026-04-28 09:50 29.01922 79.59395 38888 ft 408 kts 276°
2026-04-28 09:50 29.02241 79.56163 38414 ft 410 kts 276°
2026-04-28 09:51 29.02503 79.52964 37903 ft 410 kts 272°
2026-04-28 09:51 29.02444 79.49717 37468 ft 409 kts 265°
2026-04-28 09:51 29.01978 79.46519 37003 ft 408 kts 256°
2026-04-28 09:51 29.01073 79.43445 36547 ft 409 kts 248°
2026-04-28 09:52 28.99841 79.40514 36070 ft 409 kts 244°
2026-04-28 09:52 28.98507 79.37638 35562 ft 410 kts 243°
2026-04-28 09:52 28.97122 79.34792 35060 ft 410 kts 242°
2026-04-28 09:52 28.95716 79.31953 34519 ft 411 kts 242°
2026-04-28 09:53 28.94305 79.29108 33957 ft 412 kts 242°
2026-04-28 09:53 28.92896 79.26250 33340 ft 414 kts 242°
2026-04-28 09:53 28.91488 79.23380 32721 ft 415 kts 242°
2026-04-28 09:53 28.90080 79.20492 32121 ft 418 kts 242°
2026-04-28 09:54 28.88666 79.17586 31496 ft 420 kts 242°
2026-04-28 09:54 28.87249 79.14670 30991 ft 420 kts 242°
2026-04-28 09:54 28.85834 79.11760 30591 ft 418 kts 241°
2026-04-28 09:54 28.84429 79.08872 30160 ft 416 kts 241°
2026-04-28 09:55 28.82973 79.06032 29713 ft 414 kts 236°
2026-04-28 09:55 28.81169 79.03488 29231 ft 411 kts 226°
2026-04-28 09:55 28.78992 79.01398 28765 ft 408 kts 217°
2026-04-28 09:55 28.76646 78.99611 28324 ft 404 kts 214°
2026-04-28 09:56 28.74279 78.97901 27884 ft 402 kts 214°
2026-04-28 09:56 28.71910 78.96206 27437 ft 401 kts 214°
2026-04-28 09:56 28.69553 78.94522 27000 ft 399 kts 214°
2026-04-28 09:56 28.67207 78.92847 26566 ft 397 kts 214°
2026-04-28 09:57 28.64875 78.91182 26134 ft 394 kts 214°
2026-04-28 09:57 28.62589 78.89549 25693 ft 392 kts 214°
2026-04-28 09:57 28.60286 78.87906 25235 ft 390 kts 214°
2026-04-28 09:57 28.57996 78.86272 24809 ft 387 kts 214°
2026-04-28 09:58 28.55721 78.84650 24377 ft 385 kts 214°
2026-04-28 09:58 28.53455 78.83035 23928 ft 383 kts 214°
2026-04-28 09:58 28.51214 78.81406 23468 ft 381 kts 217°
2026-04-28 09:58 28.49243 78.79432 22969 ft 376 kts 231°
2026-04-28 09:59 28.47861 78.76961 22511 ft 369 kts 248°
2026-04-28 09:59 28.47183 78.74185 22084 ft 363 kts 263°
2026-04-28 09:59 28.47159 78.71336 21614 ft 360 kts 273°
2026-04-28 09:59 28.47367 78.68480 20802 ft 366 kts 275°
2026-04-28 10:00 28.47618 78.65594 20165 ft 367 kts 275°
2026-04-28 10:00 28.47863 78.62722 19669 ft 363 kts 275°
2026-04-28 10:00 28.48098 78.59880 19127 ft 360 kts 276°
2026-04-28 10:00 28.48326 78.57053 18593 ft 358 kts 276°
2026-04-28 10:01 28.48548 78.54249 18102 ft 354 kts 276°
2026-04-28 10:01 28.48766 78.51473 17529 ft 351 kts 276°
2026-04-28 10:01 28.48980 78.48723 16979 ft 347 kts 276°
2026-04-28 10:01 28.49191 78.46005 16434 ft 343 kts 276°
2026-04-28 10:02 28.49399 78.43315 15901 ft 340 kts 276°
2026-04-28 10:02 28.49603 78.40658 15373 ft 336 kts 276°
2026-04-28 10:02 28.49805 78.38027 14860 ft 332 kts 276°
2026-04-28 10:02 28.50004 78.35428 14352 ft 328 kts 275°
2026-04-28 10:03 28.50200 78.32854 13840 ft 325 kts 276°
2026-04-28 10:03 28.50394 78.30309 13332 ft 321 kts 276°
2026-04-28 10:03 28.50585 78.27792 12735 ft 319 kts 275°
2026-04-28 10:03 28.50776 78.25281 12088 ft 318 kts 275°
2026-04-28 10:04 28.50965 78.22782 11735 ft 317 kts 275°
2026-04-28 10:04 28.51153 78.20284 11682 ft 318 kts 275°
2026-04-28 10:04 28.51342 78.17778 11680 ft 316 kts 275°
2026-04-28 10:04 28.51522 78.15367 11674 ft 296 kts 275°
2026-04-28 10:05 28.51691 78.13111 11673 ft 277 kts 275°
2026-04-28 10:05 28.51847 78.11021 11674 ft 261 kts 275°
2026-04-28 10:05 28.51997 78.09004 11683 ft 254 kts 275°
2026-04-28 10:05 28.52145 78.07008 11685 ft 253 kts 275°
2026-04-28 10:06 28.52294 78.05014 11686 ft 253 kts 275°
2026-04-28 10:06 28.52442 78.03018 11686 ft 253 kts 275°
2026-04-28 10:06 28.52589 78.01023 11686 ft 253 kts 275°
2026-04-28 10:06 28.52737 77.99031 11686 ft 253 kts 275°
2026-04-28 10:07 28.52877 77.97039 11685 ft 253 kts 274°
2026-04-28 10:07 28.52999 77.95044 11415 ft 253 kts 274°
2026-04-28 10:07 28.53116 77.93052 11118 ft 253 kts 274°
2026-04-28 10:07 28.53231 77.91057 10824 ft 253 kts 274°
2026-04-28 10:08 28.53346 77.89062 10543 ft 253 kts 274°
2026-04-28 10:08 28.53461 77.87068 10257 ft 252 kts 274°
2026-04-28 10:08 28.53575 77.85076 9970 ft 252 kts 274°
2026-04-28 10:08 28.53690 77.83086 9689 ft 252 kts 274°
2026-04-28 10:09 28.53803 77.81098 9388 ft 252 kts 274°
2026-04-28 10:09 28.53917 77.79112 9096 ft 252 kts 274°
2026-04-28 10:09 28.54031 77.77124 8812 ft 252 kts 274°
2026-04-28 10:09 28.54144 77.75139 8527 ft 252 kts 274°
2026-04-28 10:10 28.54257 77.73157 8261 ft 250 kts 274°
2026-04-28 10:10 28.54366 77.71198 7981 ft 248 kts 274°
2026-04-28 10:10 28.54477 77.69238 7687 ft 249 kts 274°
2026-04-28 10:10 28.54588 77.67269 7404 ft 249 kts 274°
2026-04-28 10:11 28.54661 77.65970 7214 ft 248 kts 274°
2026-04-28 10:11 28.54770 77.64017 6928 ft 247 kts 274°
2026-04-28 10:11 28.54916 77.61404 6562 ft 247 kts 274°
2026-04-28 10:11 28.55023 77.59452 6280 ft 248 kts 274°
2026-04-28 10:12 28.55129 77.57531 6007 ft 245 kts 274°
2026-04-28 10:12 28.55237 77.55591 5709 ft 245 kts 275°
2026-04-28 10:12 28.55344 77.53660 5430 ft 245 kts 274°
2026-04-28 10:12 28.55452 77.51721 5149 ft 246 kts 274°
2026-04-28 10:13 28.55558 77.49789 4745 ft 243 kts 274°
2026-04-28 10:13 28.55629 77.48504 4595 ft 241 kts 274°
2026-04-28 10:13 28.55768 77.45965 4580 ft 244 kts 274°
2026-04-28 10:13 28.55873 77.44044 4479 ft 242 kts 274°
2026-04-28 10:14 28.55942 77.42788 4201 ft 240 kts 275°
2026-04-28 10:14 28.56060 77.40904 3933 ft 238 kts 275°
2026-04-28 10:14 28.56188 77.39012 3750 ft 240 kts 275°
2026-04-28 10:14 28.56316 77.37126 3491 ft 240 kts 275°
2026-04-28 10:15 28.56453 77.35228 3223 ft 241 kts 274°
2026-04-28 10:15 28.56513 77.33316 2953 ft 243 kts 272°
2026-04-28 10:15 28.56551 77.31388 2696 ft 244 kts 272°
2026-04-28 10:15 28.56584 77.29564 2593 ft 216 kts 272°
2026-04-28 10:16 28.56597 77.27958 2453 ft 192 kts 269°
2026-04-28 10:16 28.56565 77.26505 2284 ft 176 kts 270°
2026-04-28 10:16 28.56509 77.25188 2103 ft 159 kts 268°
2026-04-28 10:16 28.56463 77.23985 1893 ft 146 kts 271°
2026-04-28 10:17 28.56488 77.22852 1648 ft 142 kts 271°
2026-04-28 10:17 28.56457 77.21721 1478 ft 144 kts 270°
2026-04-28 10:17 28.56498 77.20586 1290 ft 143 kts 272°
2026-04-28 10:17 28.56536 77.19464 1168 ft 141 kts 274°
2026-04-28 10:18 28.56561 77.18332 1151 ft 146 kts 269°
2026-04-28 10:18 28.56619 77.17191 1141 ft 145 kts 275°
2026-04-28 10:18 28.56752 77.16011 1221 ft 155 kts 274°
2026-04-28 10:18 28.56812 77.14778 1175 ft 155 kts 272°
2026-04-28 10:19 28.56889 77.13595 1046 ft 144 kts 273°
2026-04-28 10:19 28.56957 77.12472 933 ft 142 kts 272°
2026-04-28 10:19 28.56995 77.11345 808 ft 144 kts 270°
2026-04-28 10:19 28.57019 77.10321 763 ft 104 kts 271°
2026-04-28 10:20 28.57034 77.09723 752 ft 52 kts 271°
2026-04-28 10:20 28.57038 77.09480 748 ft 28 kts 270°
2026-04-28 10:20 28.56983 77.09265 741 ft 30 kts 243°
2026-04-28 10:20 28.56904 77.09079 739 ft 17 kts 251°
2026-04-28 10:21 28.56856 77.09007 739 ft 11 kts 194°
2026-04-28 10:21 28.56805 77.09010 740 ft 7 kts 168°
2026-04-28 10:21 28.56755 77.09021 740 ft 8 kts 168°
2026-04-28 10:21 28.56694 77.09035 741 ft 10 kts 168°
2026-04-28 10:22 28.56620 77.09052 741 ft 12 kts 168°
2026-04-28 10:22 28.56532 77.09071 741 ft 13 kts 172°
2026-04-28 10:22 28.56434 77.09089 743 ft 14 kts 166°
2026-04-28 10:22 28.56335 77.09099 742 ft 15 kts 195°
2026-04-28 10:23 28.56229 77.09066 741 ft 17 kts 194°
2026-04-28 10:23 28.56131 77.09017 741 ft 15 kts 218°
2026-04-28 10:23 28.56056 77.08982 741 ft 9 kts 189°
2026-04-28 10:23 28.55987 77.08970 742 ft 11 kts 188°
2026-04-28 10:24 28.55912 77.08954 744 ft 4 kts 204°
2026-04-28 10:24 28.55896 77.08937 746 ft 2 kts 237°
2026-04-28 10:24 28.55895 77.08924 742 ft 2 kts 271°
2026-04-28 10:24 28.55896 77.08911 745 ft 0 kts 272°